Location: Earls Croome
(52.0667°N, 2.2000°W)
Time: 00:08:05
(UTC+00:00)

Cosmos 2219 Rocket - Pass Details

Date: 17 November 2019
Orbit: 827 x 848 km, 71.0° (Epoch: 13 December)

Event Time Altitude Azimuth Distance (km) Brightness Sun altitude
Exits shadow 03:57:20 13° 359° (N) 2,252 4.5 -32.6°
Maximum altitude 03:59:25 16° 24° (NNE) 2,100 4.6 -32.2°
Drops below altitude 10° 04:02:43 10° 60° (ENE) 2,469 5.4 -31.7°
Sets 04:06:16 0° 82° (E) 3,406 6.5 -31.2°
